Weather History for Worcester, MA

Change the Weather History Date:

Saturday, January 7, 2012

  Actual Average Record
Temperature  
Mean Temperature 47 °F 24 °F  
Max Temperature 56 °F 31 °F 60 °F (1930)
Min Temperature 37 °F 17 °F -5 °F (1942)
Degree Days  
Heating Degree Days 18 41  
Month to date heating degree days 238 283  
Since 1 July heating degree days 2140 2787  
Cooling Degree Days 0 0  
Month to date cooling degree days 0 0  
Year to date cooling degree days 0 0  
Moisture  
Dew Point 29 °F    
Average Humidity 53    
Maximum Humidity 70    
Minimum Humidity 35    
Precipitation  
Precipitation 0.00 in 0.11 in 1.25 in (2009)
Month to date precipitation 0.09 0.78  
Year to date precipitation 0.09 0.78  
Snow  
Snow 0.00 in 0.50 in 9.90 in (1958)
Month to date snowfall 0.2 3.7  
Since 1 July snowfall 16.5 20.9  
Snow Depth -    
Sea Level Pressure  
Sea Level Pressure 29.75 in    
Wind  
Wind Speed 10 mph (West)    
Max Wind Speed 21 mph    
Max Gust Speed 28 mph    
Visibility 10 miles    
Events      
T = Trace of Precipitation, MM = Missing Value Source: NWS Daily Summary

Daily Weather History Graph

Daily Weather History Graph

Search for Another Location

Airport:

Trip Planner

Search our weather history database for the weather conditions in past years. The results will help you decide how hot, cold, wet, or windy it might be!

Date:

Astronomy

Jan. 07, 2012 Rise Set
Actual Time 7:16 AM EST 4:31 PM EST
Civil Twilight 6:44 AM EST 5:02 PM EST
Nautical Twilight 6:09 AM EST 5:37 PM EST
Astronomical Twilight 5:35 AM EST 6:11 PM EST
Moon 3:12 PM EST (1/7) 5:45 AM EST (1/7)
Length of Visible Light 10h 17m
Length of Day
9h 14m
Waxing Gibbous, 97% of the Moon is Illuminated
Jan 7
Waxing Gibbous
Jan 9
Full
Jan 16
Last Quarter
Jan 23
New
Jan 30
First Quarter

Hourly Weather History & Observations

Time (EST) Temp. Windchill Dew Point Humidity Pressure Visibility Wind Dir Wind Speed Gust Speed Precip Events Conditions
12:54 AM 41.0 °F 34.7 °F 27.0 °F 57% 29.73 in 10.0 mi WSW 10.4 mph - N/A   Clear
1:54 AM 39.0 °F 34.0 °F 27.0 °F 62% 29.73 in 10.0 mi WSW 6.9 mph - N/A   Clear
2:54 AM 39.0 °F 34.8 °F 27.0 °F 62% 29.73 in 10.0 mi West 5.8 mph - N/A   Clear
3:54 AM 37.0 °F 31.0 °F 27.0 °F 67% 29.73 in 10.0 mi WSW 8.1 mph - N/A   Clear
4:54 AM 39.0 °F 33.4 °F 27.0 °F 62% 29.73 in 10.0 mi West 8.1 mph - N/A   Clear
5:54 AM 37.9 °F 32.1 °F 27.0 °F 65% 29.74 in 10.0 mi WSW 8.1 mph - N/A   Clear
6:54 AM 37.0 °F 31.0 °F 27.0 °F 67% 29.75 in 10.0 mi WSW 8.1 mph - N/A   Clear
7:54 AM 37.9 °F 33.5 °F 28.0 °F 68% 29.75 in 10.0 mi WSW 5.8 mph - N/A   Clear
8:54 AM 44.1 °F 41.5 °F 28.9 °F 55% 29.75 in 10.0 mi WSW 4.6 mph - N/A   Clear
9:54 AM 46.9 °F - 28.9 °F 50% 29.75 in 10.0 mi SW 9.2 mph - N/A   Clear
10:54 AM 51.1 °F - 28.9 °F 43% 29.71 in 10.0 mi WSW 12.7 mph - N/A   Clear
11:54 AM 54.0 °F - 28.9 °F 38% 29.68 in 10.0 mi WSW 11.5 mph 20.7 mph N/A   Clear
12:54 PM 55.0 °F - 28.9 °F 37% 29.66 in 10.0 mi WSW 11.5 mph - N/A   Clear
1:54 PM 55.0 °F - 30.0 °F 38% 29.66 in 10.0 mi WSW 11.5 mph 20.7 mph N/A   Clear
2:54 PM 55.0 °F - 30.0 °F 38% 29.67 in 10.0 mi WSW 12.7 mph 20.7 mph N/A   Overcast
3:54 PM 53.1 °F - 30.0 °F 41% 29.71 in 10.0 mi WSW 8.1 mph - N/A   Overcast
4:54 PM 52.0 °F - 30.9 °F 45% 29.73 in 10.0 mi West 8.1 mph - N/A   Overcast
5:54 PM 48.2 °F - 30.2 °F 50% 29.76 in 10.0 mi NW 13.8 mph - N/A   Mostly Cloudy
6:54 PM 46.0 °F 41.4 °F 30.9 °F 56% 29.80 in 10.0 mi WNW 9.2 mph - N/A   Clear
7:54 PM 44.1 °F 39.0 °F 30.9 °F 60% 29.82 in 10.0 mi West 9.2 mph - N/A   Clear
8:54 PM 42.1 °F 35.7 °F 30.0 °F 62% 29.83 in 10.0 mi West 11.5 mph - N/A   Clear
9:54 PM 42.1 °F 34.2 °F 28.9 °F 60% 29.86 in 10.0 mi WNW 16.1 mph 23.0 mph N/A   Clear
10:54 PM 41.0 °F 34.3 °F 26.1 °F 55% 29.88 in 10.0 mi WNW 11.5 mph - N/A   Clear
11:54 PM 39.0 °F 32.8 °F 25.0 °F 57% 29.90 in 10.0 mi West 9.2 mph - N/A   Clear